Location: Bouillancy
(49.1149°N, 2.9308°E)
Time: 06:38:16
(UTC+00:00)

COSMOS 2406 - Pass Details

Date: 30 September 2020
Orbit: 844 x 863 km, 71.0° (Epoch: 29 October)

Event Time Altitude Azimuth Distance (km) Brightness Sun altitude
Rises 18:28:26 0° 331° (NNW) 3,415 6.9 -10.6°
Reaches altitude 10° 18:30:53 10° 332° (NNW) 2,477 6.2 -11.0°
Maximum altitude 18:36:36 89° 65° (ENE) 854 3.2 -12.0°
Drops below altitude 10° 18:42:17 10° 153° (SSE) 2,469 5.3 -12.9°
Enters shadow 18:44:23 - 153° (SSE) 3,274 5.9 -13.2°
